Tracking 20626 objects as of 8-Apr-2020
HD Live streaming from Space Station
objects crossing your sky now

URSA MAIOR

Track URSA MAIOR now!
10-day predictions
URSA MAIOR is classified as:


NORAD ID: 42776
Int'l Code: 2017-036M
Perigee: 499.0 km
Apogee: 515.4 km
Inclination: 97.3 °
Period: 94.6 minutes
Semi major axis: 6878 km
RCS: Unknown
Launch date: June 23, 2017
Source: Italy (IT)
Launch site: SRIHARIKOTA (SRI)

Uplink (MHz):
Downlink (MHz): 435.950
Beacon (MHz):
Mode: 9600bps FSK
Call sign: URSAMR
Status: Active

aabbcc
Your satellite tracking list
Your tracking list is empty




NASA's NSSDC Master Catalog

Two Line Element Set (TLE):
1 42776U 17036M   20099.42195645 +.00000748 +00000-0 +35784-4 0  9999
2 42776 097.3081 153.7860 0011947 264.5792 095.4081 15.21909596155031
Source of the keplerian elements: AMSAT